Precipitable_Water
1.24 1.30 1.36 1.40 1.37 1.35 1.34 1.34 1.36 1.36 1.32 1.19 1.14 1.16 1.22 1.30 1.36 1.34 1.30 1.27 1.27 1.28 1.31 1.32 1.29 1.24 1.19 1.14 1.08 1.03 0.99 0.99 1.02 1.04 1.02 1.01 1.00 1.01 1.02 1.06 1.09 1.09
1.22 1.27 1.32 1.38 1.41 1.40 1.38 1.39 1.38 1.37 1.33 1.25 1.19 1.23 1.32 1.37 1.38 1.36 1.32 1.30 1.31 1.31 1.36 1.34 1.28 1.24 1.18 1.11 1.05 0.99 0.94 0.97 1.00 1.06 1.01 1.00 1.00 1.01 1.02 1.06 1.07 1.10
1.31 1.30 1.29 1.32 1.35 1.36 1.34 1.36 1.39 1.37 1.35 1.32 1.30 1.30 1.34 1.40 1.40 1.40 1.37 1.34 1.32 1.31 1.30 1.30 1.28 1.25 1.18 1.09 1.02 0.97 0.93 0.98 1.02 1.07 1.05 1.02 1.04 1.02 1.03 1.05 1.06 1.07
1.48 1.48 1.43 1.37 1.39 1.38 1.36 1.37 1.39 1.41 1.38 1.35 1.33 1.32 1.37 1.42 1.43 1.42 1.40 1.38 1.36 1.30 1.28 1.27 1.25 1.23 1.17 1.08 0.99 0.95 0.95 1.02 1.10 1.12 1.08 1.08 1.07 1.06 1.05 1.06 1.06 1.08
1.36 1.39 1.49 1.58 1.55 1.46 1.38 1.33 1.33 1.39 1.38 1.36 1.37 1.40 1.40 1.43 1.42 1.43 1.41 1.39 1.36 1.33 1.30 1.26 1.23 1.19 1.16 1.09 0.99 0.92 0.96 1.04 1.13 1.13 1.09 1.07 1.10 1.10 1.09 1.09 1.08 1.08
1.21 1.29 1.45 1.63 1.66 1.56 1.47 1.38 1.35 1.36 1.39 1.39 1.40 1.41 1.43 1.47 1.45 1.44 1.43 1.39 1.35 1.32 1.30 1.27 1.23 1.20 1.16 1.09 1.01 0.93 0.94 1.02 1.10 1.13 1.09 1.07 1.10 1.14 1.14 1.14 1.12 1.11
1.23 1.22 1.34 1.43 1.56 1.65 1.56 1.52 1.45 1.40 1.38 1.40 1.44 1.44 1.46 1.46 1.45 1.44 1.45 1.42 1.37 1.31 1.29 1.28 1.26 1.21 1.18 1.12 1.03 0.93 0.93 1.00 1.09 1.11 1.09 1.09 1.11 1.12 1.16 1.16 1.15 1.13
1.23 1.19 1.25 1.34 1.46 1.53 1.51 1.47 1.50 1.45 1.42 1.40 1.39 1.46 1.49 1.48 1.48 1.48 1.47 1.45 1.38 1.33 1.31 1.28 1.25 1.22 1.19 1.14 1.06 0.97 0.92 0.97 1.03 1.08 1.09 1.09 1.11 1.09 1.13 1.16 1.16 1.13
1.30 1.19 1.16 1.18 1.26 1.36 1.44 1.47 1.48 1.50 1.50 1.43 1.41 1.47 1.51 1.51 1.50 1.50 1.49 1.47 1.41 1.37 1.33 1.29 1.26 1.23 1.21 1.16 1.10 1.03 0.95 0.94 1.00 1.04 1.07 1.07 1.07 1.08 1.12 1.16 1.15 1.13
1.15 1.16 1.15 1.17 1.23 1.26 1.31 1.36 1.47 1.56 1.56 1.50 1.47 1.50 1.49 1.51 1.53 1.52 1.50 1.47 1.43 1.39 1.36 1.32 1.28 1.24 1.21 1.17 1.13 1.08 1.02 0.96 0.97 1.01 1.05 1.07 1.08 1.09 1.13 1.14 1.13 1.12
1.03 1.06 1.08 1.15 1.12 1.16 1.24 1.26 1.25 1.32 1.41 1.46 1.48 1.46 1.47 1.48 1.50 1.53 1.50 1.47 1.42 1.39 1.36 1.33 1.29 1.26 1.21 1.17 1.16 1.13 1.09 1.03 1.00 1.01 1.03 1.06 1.08 1.11 1.15 1.15 1.14 1.11
0.85 0.95 0.95 1.00 1.08 1.19 1.21 1.19 1.18 1.22 1.22 1.30 1.43 1.42 1.44 1.46 1.46 1.48 1.47 1.44 1.44 1.43 1.40 1.36 1.33 1.28 1.23 1.19 1.17 1.16 1.13 1.10 1.07 1.03 1.03 1.05 1.08 1.12 1.14 1.16 1.15 1.14
0.81 0.87 0.92 0.89 0.93 1.05 1.15 1.20 1.19 1.22 1.25 1.26 1.34 1.39 1.41 1.42 1.43 1.44 1.46 1.46 1.46 1.46 1.43 1.38 1.34 1.30 1.25 1.22 1.20 1.19 1.16 1.13 1.10 1.08 1.06 1.06 1.09 1.11 1.14 1.16 1.17 1.18
0.79 0.86 0.92 0.90 0.86 1.02 1.20 1.24 1.22 1.22 1.24 1.30 1.38 1.40 1.41 1.43 1.45 1.46 1.48 1.49 1.47 1.47 1.47 1.46 1.39 1.32 1.28 1.24 1.23 1.22 1.19 1.16 1.15 1.11 1.07 1.06 1.08 1.11 1.15 1.16 1.18 1.19
0.85 0.91 0.96 0.97 0.91 1.01 1.19 1.24 1.26 1.25 1.25 1.26 1.29 1.33 1.39 1.44 1.50 1.51 1.50 1.49 1.50 1.50 1.51 1.51 1.43 1.34 1.29 1.24 1.21 1.23 1.23 1.19 1.18 1.15 1.11 1.06 1.06 1.10 1.15 1.17 1.18 1.20
0.89 0.95 0.99 0.98 0.92 0.94 1.15 1.21 1.27 1.35 1.35 1.26 1.21 1.24 1.31 1.43 1.48 1.52 1.53 1.51 1.51 1.52 1.54 1.53 1.47 1.40 1.34 1.29 1.26 1.26 1.26 1.25 1.23 1.20 1.17 1.12 1.10 1.11 1.14 1.17 1.18 1.20
0.99 1.01 1.02 0.97 0.97 1.01 1.15 1.15 1.21 1.24 1.24 1.25 1.29 1.28 1.16 1.16 1.31 1.40 1.52 1.56 1.53 1.48 1.55 1.55 1.53 1.47 1.42 1.36 1.31 1.32 1.32 1.30 1.25 1.23 1.23 1.19 1.16 1.13 1.12 1.15 1.19 1.21
1.05 1.06 0.98 0.92 0.98 1.06 1.07 1.10 1.16 1.18 1.19 1.22 1.24 1.26 1.25 1.23 1.23 1.23 1.24 1.28 1.37 1.45 1.49 1.58 1.55 1.56 1.52 1.45 1.39 1.36 1.37 1.36 1.33 1.29 1.27 1.25 1.22 1.19 1.19 1.20 1.21 1.22
1.01 1.04 1.01 0.96 1.01 1.03 1.06 1.06 1.10 1.14 1.18 1.21 1.20 1.21 1.24 1.24 1.24 1.25 1.22 1.27 1.30 1.32 1.33 1.40 1.48 1.58 1.57 1.55 1.48 1.43 1.42 1.43 1.39 1.36 1.32 1.28 1.27 1.26 1.25 1.24 1.24 1.23
0.94 0.95 0.96 0.95 1.01 1.04 1.09 1.12 1.17 1.21 1.22 1.20 1.19 1.17 1.13 1.14 1.20 1.23 1.26 1.25 1.24 1.25 1.26 1.31 1.35 1.47 1.57 1.57 1.50 1.51 1.49 1.47 1.45 1.41 1.37 1.34 1.32 1.30 1.29 1.27 1.25 1.24
0.92 0.94 0.96 0.98 1.01 1.03 1.06 1.08 1.12 1.20 1.24 1.22 1.19 1.16 1.13 1.10 1.12 1.17 1.21 1.22 1.22 1.23 1.28 1.28 1.32 1.37 1.42 1.51 1.51 1.45 1.41 1.46 1.49 1.46 1.41 1.36 1.35 1.34 1.32 1.30 1.29 1.28
0.94 0.94 0.96 0.97 0.99 1.01 1.01 1.03 1.04 1.06 1.09 1.17 1.19 1.18 1.20 1.21 1.22 1.22 1.19 1.20 1.23 1.23 1.23 1.25 1.29 1.33 1.34 1.33 1.37 1.43 1.51 1.54 1.49 1.48 1.40 1.35 1.34 1.34 1.33 1.32 1.32 1.30
0.96 0.95 0.95 0.96 0.95 0.94 0.93 0.96 0.98 1.00 1.05 1.14 1.14 1.15 1.14 1.13 1.13 1.12 1.13 1.14 1.16 1.18 1.19 1.21 1.24 1.29 1.27 1.24 1.25 1.29 1.37 1.44 1.49 1.49 1.40 1.33 1.32 1.34 1.35 1.33 1.30 1.28
0.89 0.90 0.90 0.93 0.94 0.91 0.91 0.95 0.99 1.02 1.04 1.10 1.09 1.10 1.10 1.10 1.08 1.06 1.08 1.13 1.16 1.17 1.18 1.14 1.14 1.22 1.24 1.20 1.21 1.27 1.32 1.37 1.42 1.46 1.41 1.34 1.33 1.36 1.37 1.35 1.33 1.31
0.92 0.93 0.92 0.92 0.92 0.90 0.90 0.91 0.92 0.94 1.00 1.05 1.07 1.10 1.09 1.10 1.11 1.09 1.08 1.11 1.15 1.14 1.15 1.12 1.11 1.17 1.22 1.22 1.23 1.28 1.31 1.36 1.44 1.41 1.41 1.36 1.31 1.29 1.33 1.34 1.34 1.33
0.90 0.91 0.92 0.91 0.89 0.89 0.89 0.86 0.88 0.92 0.95 0.98 1.02 1.06 1.06 1.09 1.09 1.08 1.04 1.04 1.09 1.12 1.13 1.14 1.12 1.12 1.16 1.22 1.23 1.24 1.29 1.32 1.40 1.40 1.35 1.33 1.29 1.26 1.23 1.25 1.28 1.31
Wind_Speed
41 41 41 40 39 39 39 39 38 37 34 31 29 29 29 28 28 28 27 26 25 25 26 26 25 23 21 20 19 18 18 17 17 16 15 15 14 14 14 13 13 12
42 41 41 41 40 40 41 40 39 39 37 33 30 30 29 29 28 28 28 26 25 25 26 27 26 24 22 20 20 19 18 18 17 16 16 15 15 14 14 13 13 13
42 42 42 42 42 42 42 41 39 39 39 36 32 30 30 29 29 29 29 27 25 24 25 27 27 24 22 21 20 20 19 19 18 17 16 16 15 15 14 14 13 13
42 42 42 42 43 44 43 41 40 39 39 38 35 33 32 31 30 30 30 29 27 25 26 27 27 25 23 22 21 21 21 20 19 18 17 16 16 15 15 14 14 14
42 41 40 40 42 44 44 43 42 40 40 39 37 35 34 32 31 31 31 30 29 27 27 28 27 26 24 23 22 22 22 21 20 19 18 17 16 16 15 14 14 14
43 42 40 39 41 44 45 44 43 41 40 39 37 36 34 33 32 32 32 31 31 30 28 28 28 27 25 24 23 23 23 22 21 20 19 18 17 17 16 15 14 14
45 43 41 39 39 42 45 45 43 41 40 39 38 36 35 34 33 33 32 32 32 31 30 29 29 28 26 25 24 24 24 23 22 21 20 19 18 17 17 16 15 15
46 45 42 39 39 40 42 43 43 41 40 39 39 37 36 35 34 34 33 32 32 32 32 31 30 29 28 26 25 25 24 24 23 22 21 20 19 18 18 17 16 16
48 47 43 41 40 39 39 40 41 41 40 39 39 38 37 36 35 35 35 34 33 33 33 33 32 30 29 27 26 26 25 25 24 24 22 21 20 19 19 18 17 16
48 47 45 42 41 40 38 38 39 39 39 39 39 39 39 38 36 36 36 36 35 34 34 34 33 32 30 29 28 27 26 26 25 25 23 22 21 20 19 19 18 17
48 48 47 44 42 40 39 38 37 38 38 39 40 40 40 39 37 37 37 38 37 36 35 35 34 34 32 30 29 28 27 27 26 26 25 23 22 21 20 20 19 18
47 48 48 45 42 41 40 38 37 37 38 39 40 41 40 40 39 39 39 39 38 37 37 36 36 35 34 32 31 30 28 27 27 26 26 25 23 22 21 21 20 19
48 47 47 46 44 42 42 40 38 38 38 38 40 41 42 41 41 40 40 40 39 38 38 38 37 37 36 34 33 32 30 28 27 27 27 26 25 24 23 22 21 20
49 47 46 46 44 42 42 42 40 39 39 39 39 41 42 42 42 42 41 41 40 39 39 39 38 38 37 36 35 33 32 30 29 28 27 27 27 26 24 23 22 22
49 48 46 45 45 43 43 44 42 40 40 39 40 40 41 42 43 43 42 42 41 40 40 39 39 39 38 37 36 35 33 31 30 29 28 29 28 27 26 25 24 23
46 47 46 45 45 44 44 44 43 42 40 40 40 40 40 41 42 43 43 43 42 41 41 40 40 40 39 39 38 36 35 33 32 30 30 29 29 28 27 26 25 24
44 44 44 44 44 44 44 43 43 43 42 41 41 41 41 41 41 42 43 43 42 42 42 41 40 40 40 40 39 38 36 35 33 32 31 30 30 29 28 27 27 26
41 42 43 43 42 43 43 42 42 43 43 42 42 41 42 42 42 42 42 43 42 41 41 41 40 40 40 40 40 40 39 36 35 34 33 31 31 30 29 28 28 27
39 41 41 41 41 41 42 42 42 43 44 44 43 42 41 41 42 41 42 43 43 41 40 40 40 40 40 40 40 41 40 39 36 35 35 33 32 31 30 30 29 28
39 41 41 41 41 41 41 42 43 44 44 44 44 43 42 42 41 41 41 42 43 43 41 40 40 40 39 39 39 41 41 41 39 37 36 35 33 32 31 31 30 29
38 40 40 40 41 41 41 41 42 44 45 45 45 45 44 44 43 42 42 41 42 42 41 41 41 40 39 38 38 39 41 41 40 39 37 36 35 33 32 32 31 30
39 39 39 40 39 40 40 40 41 42 43 45 46 46 46 45 44 44 43 42 42 42 41 41 41 41 39 38 37 38 40 40 40 40 38 37 36 34 33 32 31 31
40 40 40 41 40 39 39 40 40 40 41 43 45 47 47 46 46 45 45 44 43 43 42 41 41 41 40 39 38 40 40 39 39 40 39 38 36 35 34 33 31 31
40 40 41 42 42 41 40 40 40 40 40 41 43 45 46 47 46 46 46 45 44 44 43 42 41 41 41 40 40 40 40 40 40 40 40 39 37 36 36 34 33 32
40 41 41 42 42 43 42 41 40 40 39 40 42 43 44 45 46 47 47 46 45 44 44 43 42 42 41 40 40 41 42 41 40 40 40 40 39 37 37 36 35 34
39 41 42 42 42 43 43 41 40 39 39 39 40 42 43 44 45 47 48 47 45 44 44 44 44 42 41 40 40 42 43 43 42 41 41 41 40 39 38 38 37 36
Wind_Direction
219 220 220 220 220 221 220 220 220 220 221 222 222 223 223 223 224 224 224 225 229 233 233 230 228 227 227 228 228 230 232 233 234 237 240 243 246 247 250 254 258 263
219 221 221 221 221 222 221 222 222 221 222 222 222 223 224 223 224 224 225 226 230 235 233 227 225 225 227 228 228 229 231 232 233 236 239 243 246 248 249 252 257 262
219 221 222 221 221 221 221 222 223 222 222 222 223 224 224 224 224 225 226 227 230 233 228 222 222 225 227 228 228 229 231 232 232 234 237 242 246 248 249 252 256 260
219 220 221 221 221 219 220 222 223 222 222 223 224 225 225 226 226 226 227 227 227 228 225 221 223 225 227 228 229 230 231 232 232 233 236 241 245 247 249 251 255 259
222 222 222 222 220 217 218 220 221 221 223 224 225 226 226 227 227 227 227 226 225 225 224 223 224 226 228 229 230 230 231 232 232 233 235 239 243 246 249 251 253 257
224 225 225 224 220 218 218 219 220 221 223 224 224 224 225 226 226 226 226 226 225 224 224 224 224 226 228 230 231 231 231 232 232 232 234 238 241 244 247 249 252 256
225 227 229 228 224 221 219 219 219 220 222 222 222 222 223 224 225 226 226 226 225 225 225 225 225 226 228 229 231 232 231 231 232 233 234 237 240 242 245 248 252 255
225 227 230 231 228 224 222 220 219 219 221 222 222 222 223 223 224 226 226 226 227 226 227 227 227 228 228 229 231 232 231 231 232 232 234 236 239 241 244 247 251 255
226 227 229 231 230 228 226 223 221 220 222 223 222 221 222 222 223 225 226 227 227 227 228 229 229 229 229 229 231 232 232 231 231 232 234 236 238 241 243 246 250 253
226 226 227 229 230 231 230 229 226 223 222 223 223 221 222 223 224 225 226 227 228 228 229 229 230 229 229 229 231 232 232 232 232 232 234 236 238 241 243 245 249 252
225 224 225 227 229 231 232 232 230 226 225 224 223 221 222 223 225 226 226 227 228 229 229 230 230 230 229 230 231 232 233 233 233 233 234 236 238 241 243 245 248 250
223 223 223 225 228 230 231 231 229 227 226 224 222 221 223 225 226 227 227 228 228 229 230 230 230 230 230 230 231 232 234 235 235 234 235 236 238 241 244 246 248 250
225 224 224 225 227 230 231 229 227 226 226 224 222 222 224 226 227 227 228 228 229 230 230 231 231 231 230 230 231 233 234 235 236 236 236 236 238 241 244 246 248 250
226 226 227 227 227 229 230 228 227 226 225 225 224 224 225 226 227 227 228 228 229 230 231 231 231 231 231 230 231 233 234 236 236 236 237 237 239 241 244 246 249 250
226 227 228 227 226 227 227 227 226 226 226 225 225 225 225 226 227 228 228 228 228 230 230 230 230 230 231 231 231 232 234 236 237 237 238 239 239 241 243 245 248 251
226 227 227 227 227 227 226 226 226 226 226 226 225 225 225 226 226 227 227 227 228 230 230 230 230 230 230 230 231 232 234 236 238 238 238 239 240 241 242 245 248 250
226 226 226 226 226 225 225 225 225 225 226 227 227 227 227 228 229 229 228 229 229 230 230 229 229 229 229 230 231 231 233 235 237 238 238 239 240 241 242 244 247 249
224 224 224 224 224 223 223 225 226 226 226 227 228 228 228 229 230 231 231 231 232 233 232 231 230 229 229 229 230 231 232 234 236 238 239 239 240 241 242 244 246 248
222 222 223 223 223 224 225 226 226 226 226 227 228 229 228 228 229 230 231 231 233 234 234 234 232 231 230 229 229 230 231 232 234 237 238 239 239 241 242 244 246 247
221 221 222 222 223 224 225 226 226 227 227 228 228 228 228 228 228 229 230 231 232 234 235 236 235 233 232 231 230 230 230 231 233 235 237 238 239 240 241 243 245 246
222 222 222 222 222 223 224 225 226 227 228 229 229 229 229 229 230 230 229 230 231 232 234 236 235 234 233 233 233 232 231 231 232 233 235 237 238 239 240 242 244 245
223 222 222 222 222 223 224 225 227 228 229 229 229 230 230 231 231 231 231 231 231 232 233 234 235 234 233 234 236 234 233 233 232 232 233 235 237 238 239 241 243 245
223 223 223 223 223 223 224 226 228 230 230 229 229 229 230 231 232 233 233 233 232 232 233 234 235 234 234 235 236 235 234 234 233 232 233 234 236 238 239 240 242 244
224 224 224 224 223 224 226 228 230 231 230 229 229 230 231 232 233 233 233 234 234 234 235 235 235 234 234 235 236 234 234 235 233 232 232 234 236 238 240 240 241 243
225 225 225 225 225 225 227 228 229 230 231 230 231 232 233 233 234 234 234 234 235 236 236 236 236 235 234 235 235 233 233 235 234 231 232 234 236 238 239 241 242 243
226 226 226 227 227 228 228 228 228 229 230 231 231 233 234 234 235 235 235 235 235 237 237 236 236 235 234 235 236 233 232 234 235 234 234 235 237 238 239 241 242 244